SCP
1 2 3 4 3 1 0 0 0 0 0 0 0 0 0 0 0 0 1 1 1 0 0 0 0 0 0 0 0 0 0 0 0 0 0 0 0 0 0 0 0 1 0 0 0 0 0 1 1
1 2 3 3 2 1 0 0 0 0 0 0 0 0 0 0 0 0 1 1 1 0 0 0 0 0 0 0 0 0 0 0 0 0 0 0 0 0 0 0 0 0 0 0 0 0 0 0 1
2 2 3 2 1 0 0 0 0 0 0 0 0 0 0 0 1 1 1 0 0 1 0 0 0 0 0 0 0 0 0 0 0 0 0 0 0 0 0 0 0 0 0 0 0 0 0 0 1
3 3 2 1 0 0 0 0 0 0 0 0 0 0 0 0 1 1 1 0 0 1 0 0 0 0 0 0 0 0 0 0 0 0 0 0 0 0 0 0 0 0 0 0 0 0 0 0 0
3 2 1 0 0 0 0 0 0 0 1 1 0 0 0 1 1 1 1 0 1 1 0 0 0 0 0 0 0 0 0 0 0 0 0 0 0 0 0 0 0 0 0 0 0 0 0 0 0
2 1 1 0 0 0 0 0 0 0 1 1 1 0 0 1 1 1 1 1 1 1 1 1 0 0 0 0 0 0 0 0 0 0 0 0 0 0 0 0 0 0 0 0 0 0 0 0 0
1 1 0 0 0 0 0 0 0 0 1 1 1 1 1 1 1 1 1 1 1 1 1 1 1 0 0 0 0 0 0 0 0 0 0 0 0 0 0 0 0 0 0 0 0 0 0 0 0
1 0 0 0 0 0 0 0 0 0 1 1 1 1 1 1 1 1 1 1 1 1 1 1 1 1 0 0 0 0 0 0 0 0 0 1 1 0 0 0 0 0 0 0 0 0 0 1 1
0 0 0 0 0 0 0 0 0 1 1 1 1 1 1 1 1 1 1 1 1 1 1 0 1 1 0 0 1 1 1 1 1 1 1 1 1 0 0 0 0 0 0 0 0 1 1 1 1
0 0 0 0 0 0 0 0 0 1 1 1 1 2 2 1 1 1 1 1 1 1 1 1 1 0 0 1 1 1 1 1 1 1 1 1 1 0 0 0 1 1 1 1 1 1 1 1 1
0 0 0 0 0 0 0 0 0 1 1 2 2 2 2 1 1 1 1 1 1 1 1 1 1 1 1 1 1 1 1 1 1 1 1 1 1 0 0 1 1 1 1 1 1 1 1 1 1
0 0 0 0 0 0 0 0 0 0 1 1 2 2 2 1 1 1 1 1 1 1 1 1 1 1 1 1 1 1 1 1 1 1 1 1 1 1 1 1 1 1 1 1 1 1 1 0 1
0 0 0 0 0 0 0 0 0 1 1 1 2 2 2 2 1 1 2 1 1 1 2 2 2 1 1 1 2 2 2 2 1 1 1 1 1 1 1 1 1 1 1 1 1 1 1 1 1
0 0 0 0 0 0 0 1 1 1 1 1 2 2 2 2 2 2 2 2 2 2 2 3 2 2 2 2 2 3 3 2 2 1 1 1 1 1 1 1 1 1 1 1 1 1 1 1 1
0 0 0 0 0 1 1 1 1 1 1 1 2 2 2 2 2 3 3 2 2 3 3 3 3 3 2 2 2 3 3 3 2 1 1 1 1 1 1 1 1 1 1 1 1 1 1 1 1
0 0 0 0 0 1 1 1 2 1 1 1 1 2 2 3 3 4 3 3 2 3 3 3 2 3 3 2 2 2 2 3 2 1 1 1 1 1 1 1 1 1 1 1 1 1 1 1 1
0 0 0 0 0 0 1 1 2 1 1 1 2 2 2 3 5 5 4 3 3 3 3 3 2 2 3 3 3 3 3 3 2 1 1 1 1 1 1 1 1 1 1 1 1 1 1 1 1
0 0 0 0 0 0 0 1 1 1 1 2 2 2 3 4 6 6 4 3 4 4 4 3 3 3 3 4 4 4 3 2 2 1 1 1 1 1 1 1 1 1 1 1 1 1 1 1 1
0 0 0 0 0 0 0 1 1 1 1 2 2 2 3 5 7 6 5 4 5 5 5 4 4 4 4 4 4 4 3 2 2 2 1 1 1 1 1 1 1 1 1 1 1 1 1 1 1
0 0 0 0 0 0 0 1 1 1 1 1 2 3 4 6 7 5 5 6 6 6 6 5 5 5 4 4 4 3 3 2 2 2 2 1 1 1 1 1 1 1 1 1 1 1 1 1 1
0 0 0 0 0 0 0 1 1 1 1 2 2 3 5 6 6 5 4 5 5 6 6 6 5 4 4 3 3 3 2 2 2 2 2 2 1 1 2 2 1 1 1 1 1 1 1 1 1
0 0 0 0 0 0 0 1 1 1 1 2 3 3 5 5 5 5 5 5 5 5 6 7 6 5 4 4 3 3 2 2 2 2 2 2 2 2 2 2 2 1 1 1 1 1 1 2 2
0 0 0 0 0 0 0 1 1 2 2 2 3 3 4 4 5 7 7 7 6 5 6 7 7 7 6 5 4 3 3 2 2 2 3 3 3 2 2 2 2 1 1 1 1 1 1 2 2
0 0 0 0 0 0 0 0 1 1 2 2 3 3 3 5 6 8 8 8 7 6 6 7 9 9 8 6 5 4 3 3 3 3 3 3 3 3 3 3 2 2 1 1 1 1 1 2 2
0 0 0 0 0 0 0 0 1 2 2 3 3 3 4 5 7 8 7 7 6 6 7 8 10 11 10 8 6 4 3 3 3 4 4 4 4 3 3 3 2 2 2 1 1 1 1 1 2
0 0 0 0 0 0 0 1 2 3 4 4 4 4 4 6 7 7 6 5 5 6 7 8 11 11 10 8 6 5 4 3 3 3 3 3 3 3 3 4 3 2 2 2 1 1 1 1 1
0 0 0 0 0 0 0 1 3 4 5 4 4 4 5 6 7 8 7 5 5 5 7 9 11 11 9 6 5 4 3 3 3 3 3 3 3 3 4 4 4 3 2 2 2 2 2 2 2
0 0 0 0 0 0 0 1 3 4 4 3 3 3 5 7 8 9 9 7 5 5 7 10 12 10 7 5 4 3 3 2 2 3 3 3 3 3 3 4 3 2 2 3 2 2 2 2 2
0 0 0 0 0 0 0 1 2 3 3 3 2 4 6 8 10 11 10 8 6 6 8 10 11 9 6 5 4 3 3 3 2 2 3 3 4 3 3 3 3 3 3 3 2 2 2 2 2
0 0 0 1 1 0 0 1 1 2 2 2 3 4 7 10 12 12 10 8 6 7 8 10 9 8 6 4 4 4 4 3 3 2 3 4 4 4 3 3 3 3 3 2 2 2 2 2 2
Wind_Speed
8 10 9 6 3 5 15 15 14 15 15 15 15 15 18 17 14 13 11 16 17 16 15 14 13 13 13 13 13 13 13 14 14 14 14 14 14 15 15 15 16 16 16 16 16 16 16 15 14
9 11 9 4 2 10 14 13 15 15 14 14 16 18 19 19 16 15 13 15 16 16 14 13 13 12 12 12 12 12 13 13 13 13 13 14 14 14 14 15 15 15 15 15 15 15 15 14 13
12 14 6 1 10 12 14 13 13 13 12 15 17 17 15 15 15 13 13 16 17 16 14 12 12 12 12 11 11 12 12 12 12 13 13 13 13 13 14 14 14 14 14 14 14 14 13 12 11
9 7 2 8 16 15 13 12 12 13 13 14 15 13 15 15 16 15 14 16 16 16 15 13 12 12 11 11 11 11 11 12 12 12 12 13 13 13 13 13 13 13 13 14 13 13 12 11 9
8 3 6 12 17 15 13 13 12 13 14 17 18 17 16 16 16 15 13 13 14 16 15 13 13 12 11 11 11 11 11 11 11 11 11 12 12 12 12 12 12 12 12 12 12 12 11 9 7
5 2 7 13 15 14 13 13 14 15 15 17 18 18 14 13 13 12 12 12 14 16 15 13 13 13 12 11 10 10 10 10 10 10 10 11 11 11 11 11 11 11 11 11 11 10 9 7 5
4 3 10 15 14 14 13 13 13 12 13 15 16 15 13 12 11 12 10 10 12 15 15 12 12 11 11 11 10 10 9 9 9 9 9 9 10 10 11 10 10 10 10 9 9 8 7 5 3
2 2 11 13 14 14 14 14 13 12 11 11 13 13 14 12 12 12 10 9 10 11 12 12 12 11 10 10 10 9 9 8 8 8 8 8 9 10 10 9 8 8 8 8 7 7 6 4 2
2 4 11 13 14 14 13 14 14 12 12 12 14 18 16 14 13 11 10 9 8 9 8 9 10 10 9 10 10 9 9 8 7 7 8 7 5 7 7 9 8 8 7 7 6 6 5 4 4
4 8 14 14 13 13 13 12 12 12 14 16 17 18 16 13 11 11 10 10 8 7 8 8 7 6 6 7 7 6 6 6 4 3 5 3 1 3 7 9 8 7 7 6 6 6 5 5 3
8 10 13 14 13 12 12 11 12 13 13 16 17 17 14 13 10 10 9 9 8 6 6 9 8 4 4 4 4 3 2 3 3 3 3 2 2 3 5 4 5 5 6 4 5 6 4 3 2
8 10 10 12 11 11 11 12 13 14 14 16 16 15 13 12 10 10 10 10 8 5 6 7 8 5 5 3 2 3 3 2 3 3 1 2 1 1 2 1 2 3 3 2 2 2 2 1 1
7 8 10 10 10 10 11 12 14 15 15 17 16 15 13 11 10 10 9 9 8 6 6 7 7 5 3 2 2 2 2 2 3 2 1 1 1 1 2 0 0 1 1 2 2 1 1 1 1
5 7 8 9 9 9 11 9 12 15 15 16 15 13 12 11 11 10 9 8 7 6 6 6 6 5 3 2 1 1 2 2 2 2 2 1 1 2 1 0 0 0 0 1 1 1 2 1 1
4 5 6 7 8 10 11 7 11 15 15 15 14 12 11 11 11 10 10 8 8 6 6 5 5 6 4 3 2 1 1 2 2 2 2 0 1 1 1 1 1 1 1 1 1 1 1 2 2
6 6 6 7 7 9 7 7 12 15 14 14 13 12 10 9 10 10 10 8 8 7 6 4 4 7 4 2 2 1 1 2 1 2 2 2 1 1 1 1 1 1 1 1 1 1 1 1 1
7 6 6 7 7 7 6 8 12 13 14 13 12 12 12 10 9 10 10 9 8 7 6 4 2 5 4 3 2 1 0 0 1 1 1 1 1 2 2 1 1 2 1 1 2 1 1 1 1
4 4 5 5 6 4 7 9 11 13 13 13 12 12 12 12 10 10 10 9 8 7 6 5 3 3 3 3 2 1 1 1 1 1 1 1 1 2 2 2 2 2 1 1 1 0 1 2 2
5 3 3 5 5 2 5 9 10 12 12 12 13 12 12 12 12 10 10 9 9 7 6 5 5 4 2 2 2 2 2 2 2 2 2 2 2 1 2 2 1 2 1 1 1 1 1 2 2
7 6 4 5 6 4 4 6 10 12 11 11 12 12 12 12 12 11 9 9 9 8 6 5 5 5 4 2 1 2 1 2 2 1 2 2 1 2 2 2 1 1 1 1 2 1 1 2 1
8 7 4 2 3 5 4 4 7 10 10 11 11 12 13 13 13 12 10 9 9 8 7 6 5 5 4 3 2 1 0 0 0 1 1 1 1 1 1 0 1 1 1 1 2 2 2 2 1
9 6 4 4 3 6 5 3 5 9 11 12 11 12 13 13 13 13 12 10 9 9 8 6 5 4 3 3 2 3 2 2 1 1 1 2 2 2 1 1 1 1 1 1 2 1 1 2 2
8 5 6 7 7 8 6 4 5 8 10 11 12 11 12 13 13 13 12 10 9 9 9 8 6 5 3 2 2 2 2 1 1 1 1 1 1 1 1 0 0 0 1 1 2 2 1 1 2
7 7 7 8 8 9 8 5 4 7 8 8 11 11 11 12 13 12 12 10 9 9 8 9 7 6 4 3 3 2 2 1 0 0 0 1 1 1 1 1 0 1 1 1 1 1 1 1 1
11 9 6 6 7 8 8 6 5 9 8 8 9 11 11 11 12 12 12 12 9 9 8 8 8 6 5 4 3 2 2 1 1 1 1 1 0 0 1 1 0 0 0 1 1 1 1 1 1
12 13 9 7 7 5 5 3 6 11 10 9 10 11 12 12 12 13 12 12 10 9 9 8 8 6 5 4 2 1 1 1 1 1 1 0 0 1 1 1 1 2 2 2 1 1 1 1 1
13 13 14 11 11 6 4 4 7 10 10 10 11 12 13 13 13 13 13 12 11 10 9 8 8 6 5 4 3 2 1 0 0 0 0 1 1 1 2 2 2 2 2 2 2 2 2 2 2
14 12 8 9 8 8 5 6 5 10 10 10 10 11 13 14 14 13 12 12 11 10 9 9 8 7 5 5 3 3 2 1 2 1 2 2 2 3 3 3 3 2 2 3 2 2 2 3 2
14 14 10 7 8 8 5 2 4 8 9 9 10 10 11 13 14 13 12 12 12 11 11 9 8 7 6 5 4 3 3 3 3 2 2 3 3 3 3 3 3 3 3 3 3 3 4 4 3
15 15 13 8 7 8 7 3 2 6 8 8 9 10 9 10 13 13 13 12 11 12 11 10 9 8 7 5 5 4 3 4 4 3 4 4 3 3 3 3 3 3 4 4 4 4 4 4 4
Wind_Direction
245 238 226 243 248 75 69 70 72 71 66 61 62 67 62 60 74 90 105 101 102 104 105 96 87 85 83 82 80 79 78 78 77 76 77 79 81 84 85 85 85 86 88 88 88 88 89 90 90
263 250 232 235 69 75 71 71 73 75 79 80 76 77 76 75 86 97 101 100 102 103 99 94 93 87 85 84 82 81 80 79 79 79 79 80 82 85 87 88 88 88 89 90 90 90 91 92 94
260 257 264 97 69 72 76 75 83 88 88 85 77 69 73 87 93 101 107 103 98 97 99 98 95 91 88 86 85 84 84 82 81 81 81 81 83 85 88 89 89 88 89 91 91 92 93 94 95
257 243 197 71 75 75 81 87 91 92 90 90 89 80 77 88 99 110 113 108 111 112 105 103 100 96 92 90 88 87 86 84 83 82 83 83 83 86 88 89 89 89 90 92 93 94 93 93 93
248 266 86 79 77 78 80 85 85 85 83 85 90 93 89 94 105 113 112 113 115 111 112 110 106 102 97 95 95 93 91 89 87 86 86 87 88 90 91 91 90 90 92 94 95 96 96 94 91
258 212 91 85 82 82 81 85 90 90 97 102 104 102 100 110 114 115 112 115 115 115 113 116 114 110 106 102 99 98 97 95 94 94 95 95 94 95 95 96 95 94 94 95 95 99 101 97 89
269 81 93 93 91 84 81 81 85 92 99 106 111 111 118 121 117 113 110 110 113 115 122 129 129 122 117 112 109 107 106 106 106 107 108 108 107 105 102 100 100 100 100 101 100 101 105 107 98
318 64 88 93 94 89 89 87 86 88 87 110 123 118 126 127 125 118 117 114 111 116 125 136 137 137 139 129 126 124 123 124 126 127 128 128 126 123 122 115 109 111 113 115 114 117 123 134 153
353 77 80 89 96 100 97 98 97 98 94 79 87 111 126 135 130 128 123 111 103 108 118 126 127 142 145 137 138 146 144 148 153 155 157 161 163 139 141 115 128 131 134 135 140 146 153 167 194
54 75 79 88 98 103 104 107 113 109 103 96 99 113 129 137 138 134 130 124 115 116 116 109 103 119 132 127 143 158 154 152 180 147 163 178 143 123 120 136 147 155 160 164 175 181 186 208 201
77 81 88 94 100 108 114 117 115 110 113 118 124 132 138 139 141 133 126 119 120 129 113 112 104 96 90 102 134 141 133 145 152 127 129 140 129 136 130 152 161 176 180 191 178 195 204 208 199
81 85 87 95 105 108 108 101 94 97 110 122 131 137 142 149 142 136 132 126 126 121 110 106 109 87 57 51 95 139 127 145 131 124 125 114 101 113 117 146 171 174 173 168 185 207 175 204 202
95 98 98 101 101 94 92 95 98 101 114 124 133 141 150 145 139 129 125 125 128 125 112 97 99 96 86 46 355 83 94 102 113 124 102 128 153 104 100 51 53 209 149 159 192 197 144 208 231
110 109 111 114 107 111 100 105 113 121 128 132 140 148 150 144 139 132 133 128 134 137 123 118 124 120 119 122 1 45 106 116 117 116 118 85 76 82 93 149 290 303 100 130 200 185 152 213 243
143 129 132 134 136 124 116 127 127 134 138 141 146 151 150 147 142 142 142 144 144 146 133 135 146 139 155 165 211 185 163 135 125 125 129 163 133 131 163 218 225 231 219 161 203 266 209 213 223
188 185 169 151 149 143 142 137 138 146 148 149 154 154 156 151 152 147 145 148 149 150 142 168 166 144 159 183 236 270 148 126 145 157 148 174 182 181 231 235 231 218 227 211 219 240 259 267 293
214 204 169 156 152 148 142 130 149 159 156 158 162 162 162 161 162 153 152 157 154 145 145 165 163 144 159 177 199 242 50 106 161 144 136 156 205 193 223 251 230 239 230 221 241 162 244 290 280
232 205 181 152 136 159 141 144 162 166 165 166 170 169 168 168 171 160 160 160 155 146 148 158 170 156 165 177 188 233 219 186 185 161 154 158 216 207 220 233 215 239 241 224 224 209 243 267 269
258 217 178 139 133 195 156 150 168 171 177 172 174 173 174 172 168 165 168 165 156 150 152 163 172 162 172 192 197 204 205 207 189 186 174 171 214 226 227 277 222 225 235 233 231 214 245 256 251
263 257 200 161 154 202 181 169 171 176 183 178 176 173 172 170 165 164 166 161 155 153 158 163 169 169 176 190 198 218 215 208 182 172 142 173 193 230 226 217 253 246 256 249 268 265 261 270 267
251 249 249 227 180 220 203 209 180 172 178 178 179 176 174 173 167 165 170 167 163 163 169 173 165 166 177 184 201 226 208 273 157 148 155 188 196 223 276 259 269 294 270 220 229 241 245 258 272
249 252 257 265 253 264 233 210 193 177 187 182 182 179 175 172 166 167 171 171 169 166 166 153 151 154 163 176 207 219 205 199 199 188 178 191 196 207 201 212 242 279 308 302 261 222 232 244 262
252 260 255 259 258 263 259 241 175 189 193 184 181 179 172 169 166 165 165 165 167 166 161 154 148 150 155 169 201 232 234 209 195 173 193 203 203 207 171 118 44 309 288 300 304 330 288 271 272
249 252 252 265 263 259 253 243 178 181 181 177 172 168 166 165 160 156 155 155 160 159 158 154 148 152 161 181 193 212 241 248 289 312 177 207 195 170 139 158 207 295 313 302 288 288 277 282 286
230 236 234 237 238 244 243 236 149 151 155 165 166 159 161 159 154 154 155 156 159 160 156 150 148 152 160 168 181 192 220 215 220 264 246 236 258 136 88 81 92 305 303 323 320 290 308 325 320
226 235 239 247 251 251 242 224 138 135 137 141 143 157 158 158 157 157 157 155 159 157 151 148 147 149 152 151 156 175 220 208 211 227 247 128 54 42 80 91 80 51 24 9 10 27 18 25 359
232 235 249 258 269 264 241 200 145 136 139 142 148 156 156 157 158 157 156 157 157 155 151 147 141 144 150 152 148 148 149 171 332 45 71 39 32 59 67 84 75 58 38 24 36 52 28 34 38
246 246 250 256 271 271 240 237 190 153 157 156 154 156 154 156 156 154 158 157 154 153 146 140 142 143 143 148 157 150 140 115 89 68 73 64 51 57 58 54 58 56 47 42 46 54 45 53 39
224 239 247 262 266 269 265 258 138 151 161 161 157 153 154 156 151 156 157 154 151 149 146 144 143 143 143 138 129 111 114 111 108 104 86 77 65 67 65 56 56 57 47 43 49 52 50 50 40
230 232 231 237 255 272 273 251 120 144 152 152 147 143 147 147 149 155 150 146 150 149 149 149 149 148 144 137 127 115 103 95 90 83 79 77 72 71 71 66 61 62 56 50 49 51 48 48 44